Mountain Home, ID

8:43 PM MDT on May 22, 2017 (GMT -0600)
Mountain Home Air Force Base

Weather History for KMUO - September, 2013

Change the Weather History Date:

Friday, September 6, 2013

  Actual Average Record
Temperature  
Mean Temperature 70 °F 67 °F  
Max Temperature 81 °F 84 °F 105 °F (1955)
Min Temperature 58 °F 50 °F 33 °F (1911)
Degree Days  
Heating Degree Days 0 2  
Month to date heating degree days 0 8  
Cooling Degree Days 5 5  
Month to date cooling degree days 64 32  
Growing Degree Days 20 (Base 50)    
Moisture  
Dew Point 50 °F    
Average Humidity 60    
Maximum Humidity 100    
Minimum Humidity 24    
Precipitation  
Precipitation 0.00 in 0.01 in 0.34 in (1978)
Month to date precipitation 0.01 0.07  
Sea Level Pressure  
Sea Level Pressure 30.01 in    
Wind  
Wind Speed 12 mph (NW)    
Max Wind Speed 20 mph    
Max Gust Speed 24 mph    
Visibility 9 miles    
Events      
T = Trace of Precipitation, MM = Missing Value Source: NWS Daily Summary

Daily Weather History Graph

Daily Weather History Graph

Search for Another Location

Airport or City:

Trip Planner

Search our weather history database for the weather conditions in past years. The results will help you decide how hot, cold, wet, or windy it might be!

Date:

Astronomy

Sep. 06, 2013 Rise Set
Actual Time 7:13 AM MDT 8:08 PM MDT
Civil Twilight 6:44 AM MDT 8:37 PM MDT
Nautical Twilight 6:10 AM MDT 9:12 PM MDT
Astronomical Twilight 5:34 AM MDT 9:47 PM MDT
Moon 8:33 AM MDT (9/6) 8:31 PM MDT (9/6)
Length of Visible Light 13h 53m
Length of Day
12h 55m
New Moon, 2% of the Moon is Illuminated
Sep 6
New Moon
Sep 12
First Quarter
Sep 19
Full
Sep 26
Last Quarter
Oct 4
New

Hourly Weather History & Observations

Time (MDT) Temp. Dew Point Humidity Pressure Visibility Wind Dir Wind Speed Gust Speed Precip Events Conditions
12:58 AM 67.1 °F 62.6 °F 85% 29.89 in 10.0 mi North 10.4 mph - N/A   Clear
1:18 AM 66.2 °F 64.4 °F 94% 29.97 in 8.0 mi NNW 12.7 mph - N/A   Scattered Clouds
1:58 AM 66.2 °F 64.8 °F 95% 29.91 in 8.0 mi NNW 10.4 mph - N/A   Scattered Clouds
2:43 AM 62.6 °F 62.6 °F 100% 29.99 in 4.0 mi WNW 8.1 mph - N/A   Clear
2:53 AM 64.4 °F 62.6 °F 94% 30.00 in 5.0 mi West 9.2 mph - N/A   Clear
2:58 AM 63.7 °F 63.3 °F 99% 29.93 in 5.0 mi WNW 9.2 mph - N/A   Clear
3:03 AM 64.4 °F 62.6 °F 94% 30.00 in 5.0 mi WNW 10.4 mph - N/A   Partly Cloudy
3:48 AM 62.6 °F 62.6 °F 100% 30.02 in 6.0 mi WNW 9.2 mph - N/A   Mostly Cloudy
3:58 AM 63.3 °F 63.0 °F 99% 29.95 in 6.0 mi West 8.1 mph - N/A   Overcast
4:58 AM 61.3 °F 61.0 °F 99% 29.97 in 8.0 mi West 5.8 mph - N/A   Mostly Cloudy
5:23 AM 60.8 °F 60.8 °F 100% 30.04 in 10.0 mi West 6.9 mph - N/A   Mostly Cloudy
5:58 AM 61.0 °F 60.6 °F 99% 29.97 in 10.0 mi WNW 8.1 mph - N/A   Scattered Clouds
6:58 AM 60.6 °F 60.3 °F 99% 29.99 in 10.0 mi WNW 9.2 mph - N/A   Overcast
7:58 AM 61.9 °F 61.2 °F 97% 30.03 in 10.0 mi NNW 10.4 mph - N/A   Scattered Clouds
8:58 AM 66.7 °F 55.6 °F 67% 30.04 in 10.0 mi NW 12.7 mph - N/A   Mostly Cloudy
9:58 AM 67.5 °F 50.7 °F 55% 30.06 in 10.0 mi NW 19.6 mph - N/A   Clear
10:58 AM 71.1 °F 44.1 °F 38% 30.07 in 10.0 mi NW 18.4 mph - N/A   Clear
11:58 AM 74.5 °F 38.7 °F 27% 30.07 in 10.0 mi NNW 19.6 mph - N/A   Clear
12:58 PM 76.8 °F 38.5 °F 25% 30.05 in 10.0 mi NW 17.3 mph - N/A   Clear
1:38 PM 77.0 °F 39.2 °F 26% 30.11 in 10.0 mi NNW 15.0 mph - N/A   Clear
1:42 PM 77.0 °F 39.2 °F 26% 30.11 in 10.0 mi WNW 12.7 mph - N/A   Clear
1:58 PM 77.2 °F 39.2 °F 26% 30.04 in 10.0 mi NNW 13.8 mph 21.9 mph N/A   Clear
2:31 PM 78.8 °F 41.0 °F 26% 30.09 in 10.0 mi NW 12.7 mph 19.6 mph N/A   Clear
2:58 PM 79.2 °F 41.5 °F 26% 30.02 in 10.0 mi NNW 13.8 mph 24.2 mph N/A   Clear
3:58 PM 80.1 °F 40.6 °F 25% 30.00 in 10.0 mi NNW 12.7 mph - N/A   Clear
4:58 PM 79.9 °F 39.6 °F 24% 29.98 in 10.0 mi NW 13.8 mph - N/A   Clear
5:58 PM 79.5 °F 40.3 °F 25% 29.98 in 10.0 mi NW 15.0 mph - N/A   Clear
6:58 PM 78.4 °F 39.4 °F 25% 29.97 in 10.0 mi NW 19.6 mph - N/A   Clear
7:58 PM 75.2 °F 39.6 °F 28% 29.98 in 10.0 mi NW 16.1 mph - N/A   Clear
8:58 PM 67.8 °F 40.3 °F 37% 30.01 in 10.0 mi NW 10.4 mph - N/A   Clear
9:58 PM 66.0 °F 41.0 °F 40% 30.01 in 10.0 mi NW 13.8 mph - N/A   Clear
10:58 PM 64.4 °F 41.2 °F 43% 30.03 in 10.0 mi NW 13.8 mph - N/A   Clear
11:58 PM 61.0 °F 41.9 °F 49% 30.03 in 10.0 mi NW 9.2 mph - N/A   Clear